Location: Days
(41.3591°N, 106.7339°W)
Time: 16:49:21
(UTC+00:00)

First-Move - Pass Details

Date: 09 July 2022
Orbit: 572 x 658 km, 97.6° (Epoch: 09 August)

Event Time Altitude Azimuth Distance (km) Brightness Sun altitude
Rises 09:45:19 0° 37° (NE) 2,986 ? -17.1°
Reaches altitude 10° 09:49:29 10° 74° (ENE) 2,075 ? -16.6°
Maximum altitude 09:50:36 11° 89° (E) 2,021 ? -16.5°
Drops below altitude 10° 09:51:42 10° 103° (ESE) 2,072 ? -16.4°
Sets 09:55:50 0° 141° (SE) 2,974 ? -15.9°
